Haines, AK

9:48 PM AKDT on May 22, 2018 (GMT -0800)
Haines

Weather History for PAHN - January, 2013

Change the Weather History Date:

Monday, January 14, 2013

  Actual Average Record
Temperature  
Mean Temperature 40 °F -  
Max Temperature 42 °F 26 °F 52 °F (2018)
Min Temperature 39 °F 19 °F -8 °F (1980)
Degree Days  
Heating Degree Days 24    
Moisture  
Dew Point 39 °F    
Average Humidity 90    
Maximum Humidity 96    
Minimum Humidity 87    
Precipitation  
Precipitation 0.20 in - - ()
Sea Level Pressure  
Sea Level Pressure 30.10 in    
Wind  
Wind Speed 13 mph (East)    
Max Wind Speed 18 mph    
Max Gust Speed 34 mph    
Visibility 8 miles    
Events Rain    
Averages and records for this station are not official NWS values.
T = Trace of Precipitation, MM = Missing Value Source: NWS Daily Summary

Daily Weather History Graph

Daily Weather History Graph

Search for Another Location

Airport or City:

Astronomy

Jan. 14, 2013 Rise Set
Actual Time 8:44 AM AKST 3:38 PM AKST
Civil Twilight 7:53 AM AKST 4:29 PM AKST
Nautical Twilight 7:01 AM AKST 5:22 PM AKST
Astronomical Twilight 6:12 AM AKST 6:11 PM AKST
Moon 9:18 AM AKST (1/14) 8:43 PM AKST (1/14)
Length of Visible Light 8h 35m
Length of Day
6h 53m
Waxing Crescent, 12% of the Moon is Illuminated
Jan 14
Waxing Crescent
Jan 18
First Quarter
Jan 26
Full
Feb 3
Last Quarter
Feb 9
New

Hourly Weather History & Observations

Time (AKST) Temp. Windchill Dew Point Humidity Pressure Visibility Wind Dir Wind Speed Gust Speed Precip Events Conditions
12:54 AM 39.0 °F 32.3 °F 36.0 °F 89% 30.13 in 10.0 mi East 10.4 mph 20.7 mph N/A   Overcast
1:28 AM 39.2 °F 32.0 °F 35.6 °F 87% 30.12 in 10.0 mi ESE 11.5 mph - N/A   Overcast
1:54 AM 39.9 °F 33.4 °F 37.0 °F 89% 30.13 in 10.0 mi East 10.4 mph 17.3 mph N/A   Overcast
3:54 AM 41.0 °F 34.7 °F 37.9 °F 89% 30.11 in 10.0 mi ENE 10.4 mph 20.7 mph N/A   Overcast
4:54 AM 41.0 °F 33.5 °F 37.9 °F 89% 30.10 in 10.0 mi ENE 13.8 mph 21.9 mph N/A   Overcast
5:54 AM 41.0 °F 33.9 °F 37.9 °F 89% 30.09 in 10.0 mi ENE 12.7 mph 19.6 mph N/A   Overcast
6:54 AM 41.0 °F 33.1 °F 39.0 °F 93% 30.09 in 10.0 mi East 15.0 mph 33.4 mph N/A   Overcast
7:47 AM 41.0 °F 33.9 °F 37.4 °F 87% 30.09 in 10.0 mi East 12.7 mph 19.6 mph N/A   Overcast
7:54 AM 41.0 °F 32.8 °F 37.9 °F 89% 30.08 in 10.0 mi ENE 16.1 mph 24.2 mph N/A   Overcast
8:49 AM 41.0 °F 33.1 °F 37.4 °F 87% 30.05 in 10.0 mi ESE 15.0 mph 32.2 mph N/A   Overcast
8:54 AM 41.0 °F 33.5 °F 39.0 °F 93% 30.05 in 10.0 mi East 13.8 mph 34.5 mph N/A   Overcast
9:54 AM 41.0 °F 33.1 °F 39.0 °F 93% 30.08 in 8.0 mi East 15.0 mph 32.2 mph N/A   Overcast
10:03 AM 41.0 °F 32.2 °F 39.2 °F 93% 30.07 in 8.0 mi East 18.4 mph 28.8 mph N/A   Overcast
10:54 AM 41.0 °F 33.5 °F 39.9 °F 96% 30.08 in 6.0 mi East 13.8 mph 28.8 mph 0.00 in Rain Light Rain
11:13 AM 41.0 °F 33.5 °F 39.2 °F 93% 30.08 in 7.0 mi East 13.8 mph 26.5 mph 0.00 in Rain Light Rain
11:54 AM 42.1 °F 34.5 °F 39.9 °F 92% 30.09 in 6.0 mi East 15.0 mph 26.5 mph 0.01 in   Overcast
12:09 PM 42.8 °F 35.4 °F 39.2 °F 87% 30.09 in 6.0 mi East 15.0 mph 29.9 mph 0.00 in Rain Light Rain
12:23 PM 42.8 °F 35.4 °F 39.2 °F 87% 30.09 in 4.0 mi East 15.0 mph 32.2 mph 0.00 in Rain Light Rain
12:30 PM 42.8 °F 35.4 °F 39.2 °F 87% 30.08 in 4.0 mi East 15.0 mph 27.6 mph 0.00 in Rain Light Rain
12:54 PM 42.1 °F 35.7 °F 39.9 °F 92% 30.09 in 4.0 mi East 11.5 mph 25.3 mph 0.00 in Rain Light Rain
1:34 PM 42.8 °F 36.2 °F 39.2 °F 87% 30.08 in 6.0 mi ESE 12.7 mph 28.8 mph 0.01 in Rain Light Rain
1:39 PM 42.8 °F 35.1 °F 39.2 °F 87% 30.08 in 6.0 mi East 16.1 mph 21.9 mph 0.01 in Rain Light Rain
1:54 PM 42.1 °F 34.9 °F 39.9 °F 92% 30.10 in 7.0 mi East 13.8 mph 25.3 mph 0.01 in Rain Light Rain
2:13 PM 42.8 °F 36.2 °F 39.2 °F 87% 30.09 in 8.0 mi East 12.7 mph 21.9 mph 0.01 in Rain Light Rain
2:47 PM 42.8 °F 35.8 °F 39.2 °F 87% 30.10 in 9.0 mi East 13.8 mph 24.2 mph 0.01 in Rain Light Rain
2:54 PM 42.1 °F 33.9 °F 39.9 °F 92% 30.11 in 10.0 mi ESE 17.3 mph 25.3 mph 0.01 in Rain Light Rain
3:15 PM 42.8 °F 35.8 °F 39.2 °F 87% 30.09 in 10.0 mi East 13.8 mph 24.2 mph 0.00 in Rain Light Rain
3:54 PM 42.1 °F 34.5 °F 39.9 °F 92% 30.11 in 10.0 mi East 15.0 mph 28.8 mph 0.00 in Rain Light Rain
4:54 PM 42.1 °F 34.5 °F 39.0 °F 89% 30.12 in 10.0 mi East 15.0 mph 31.1 mph 0.01 in Rain Light Rain
5:54 PM 41.0 °F 34.7 °F 39.9 °F 96% 30.11 in 9.0 mi East 10.4 mph 19.6 mph 0.02 in Rain Light Rain
6:54 PM 41.0 °F 33.1 °F 39.0 °F 93% 30.12 in 7.0 mi East 15.0 mph 33.4 mph 0.01 in Rain Light Rain
7:40 PM 41.0 °F 33.1 °F 39.2 °F 93% 30.11 in 7.0 mi ESE 15.0 mph 33.4 mph 0.02 in Rain Light Rain
7:54 PM 41.0 °F 32.5 °F 39.0 °F 93% 30.12 in 7.0 mi ESE 17.3 mph 28.8 mph 0.02 in Rain Light Rain
8:54 PM 41.0 °F 32.5 °F 39.0 °F 93% 30.12 in 7.0 mi East 17.3 mph 25.3 mph 0.02 in Rain Light Rain
9:54 PM 41.0 °F 32.5 °F 39.0 °F 93% 30.12 in 8.0 mi ESE 17.3 mph 27.6 mph 0.03 in Rain Light Rain
10:54 PM 41.0 °F 33.9 °F 39.0 °F 93% 30.12 in 8.0 mi ESE 12.7 mph 27.6 mph 0.02 in Rain Light Rain
11:54 PM 41.0 °F 32.5 °F 39.0 °F 93% 30.10 in 7.0 mi ESE 17.3 mph 27.6 mph 0.04 in Rain Light Rain